This is the latest recevied weather packets stored in our database for station/object N5COP-13. If no packets are shown the sender has not sent any weather packets the latest 1 day(s).
| Time | Temp. | Humidity | Pressure | Rain* | Wind** | Luminosity | Snow |
|---|---|---|---|---|---|---|---|
| 1777995284 | 14.44° C | 45% | 1010.9 hPa | 0 mm | 6.26 m/s, 16° | 554 W/m² | - |
| 1777994980 | 14.44° C | 45% | 1010.9 hPa | 0 mm | 3.13 m/s, 3° | 550 W/m² | - |
| 1777994677 | 14.44° C | 45% | 1010.8 hPa | 0 mm | 8.05 m/s, 349° | 704 W/m² | - |
| 1777994372 | 13.89° C | 46% | 1010.9 hPa | 0 mm | 4.02 m/s, 353° | 500 W/m² | - |
| 1777994068 | 13.33° C | 46% | 1010.6 hPa | 0 mm | 4.02 m/s, 359° | 451 W/m² | - |
| 1777993765 | 13.33° C | 46% | 1010.7 hPa | 0 mm | 5.81 m/s, 15° | 295 W/m² | - |
| 1777993456 | 13.33° C | 46% | 1010.8 hPa | 0 mm | 4.92 m/s, 11° | 402 W/m² | - |
| 1777993151 | 13.33° C | 47% | 1010.8 hPa | 0 mm | 3.58 m/s, 9° | 408 W/m² | - |
| 1777992849 | 12.78° C | 47% | 1010.8 hPa | 0 mm | 4.47 m/s, 354° | 351 W/m² | - |
| 1777992546 | 12.78° C | 48% | 1010.7 hPa | 0 mm | 5.36 m/s, 13° | 257 W/m² | - |
| 1777992239 | 12.78° C | 48% | 1010.6 hPa | 0 mm | 7.6 m/s, 357° | 226 W/m² | - |
| 1777991935 | 12.22° C | 48% | 1010.6 hPa | 0 mm | 8.05 m/s, 10° | 281 W/m² | - |
| 1777991633 | 12.78° C | 48% | 1010.8 hPa | 0 mm | 6.26 m/s, 349° | 227 W/m² | - |
| 1777991330 | 12.22° C | 48% | 1010.8 hPa | 0 mm | 6.26 m/s, 343° | 249 W/m² | - |
| 1777991028 | 12.78° C | 48% | 1010.8 hPa | 0 mm | 5.81 m/s, 20° | 222 W/m² | - |
| 1777990724 | 12.78° C | 48% | 1010.7 hPa | 0 mm | 5.81 m/s, 353° | 322 W/m² | - |
| 1777990422 | 12.22° C | 49% | 1010.9 hPa | 0 mm | 3.58 m/s, 337° | 348 W/m² | - |
| 1777990118 | 12.22° C | 49% | 1010.9 hPa | 0 mm | 5.81 m/s, 10° | 275 W/m² | - |
| 1777989815 | 12.22° C | 49% | 1010.9 hPa | 0 mm | 6.26 m/s, 348° | 210 W/m² | - |
| 1777989512 | 11.67° C | 50% | 1010.8 hPa | 0 mm | 5.81 m/s, 12° | 280 W/m² | - |
| 1777989208 | 11.67° C | 50% | 1010.4 hPa | 0 mm | 5.81 m/s, 8° | 183 W/m² | - |
| 1777988904 | 11.67° C | 50% | 1010.6 hPa | 0 mm | 5.81 m/s, 0° | 245 W/m² | - |
| 1777988601 | 11.67° C | 51% | 1010.3 hPa | 0 mm | 3.13 m/s, 1° | 147 W/m² | - |
| 1777988298 | 11.67° C | 51% | 1010.3 hPa | 0 mm | 4.02 m/s, 1° | 194 W/m² | - |
| 1777987995 | 11.11° C | 52% | 1010.1 hPa | 0 mm | 4.92 m/s, 10° | 147 W/m² | - |
* Rain latest hour (hover to see other rain measurements)
** Current wind speed in m/s (hover to see current wind gust speed)